Regional Weather Roundup
Issued by NWS

Home | Current Version | Previous Version | Graphics & Text | Print | Product List | Glossary On
Versions: 1 2 3 4 5 6 7 8 9 10 11 12 13 14 15 16 17 18 19 20 21 22 23 24 25 26 27 28 29 30 31 32 33 34 35 36 37 38 39 40 41 42 43 44 45 46 47 48 49 50
000
ASUS43 KTOP 281359
RWRKS

WEATHER ROUNDUP FOR KANSAS
NATIONAL WEATHER SERVICE GOODLAND KS
900 AM CDT WED JUN 28 2017

NOTE:  "FAIR" INDICATES FEW OR NO CLOUDS BELOW 12,000 FEET WITH NO
SIGNIFICANT WEATHER AND/OR OBSTRUCTIONS TO VISIBILITY.

KSZ001>006-013>018-027>032-041>047-281500-
NORTHWEST KANSAS

CITY           SKY/WX    TMP DP  RH WIND       PRES   REMARKS
GOODLAND       SUNNY     67  58  72 N10       29.85R
HAYS           SUNNY     77  68  73 S25G31    29.76S
HILL CITY      SUNNY     76  68  76 S20G32    29.76R
RUSSELL        SUNNY     76  69  79 S22G29    29.76R
$$

KSZ061>065-074>080-084>089-281500-
SOUTHWEST KANSAS

CITY           SKY/WX    TMP DP  RH WIND       PRES   REMARKS
DODGE CITY     SUNNY     77  64  64 S24G33    29.79F
ELKHART          N/A     74  47  38 W13         N/A
GARDEN CITY    SUNNY     77  61  57 S17       29.78R
GREAT BEND     SUNNY     77  68  73 S25G33    29.77F
LIBERAL        SUNNY     78  63  59 SW28G35   29.79S HAZE
$$

KSZ066>073-081>083-090>101-281500-
SOUTHEAST KANSAS

CITY           SKY/WX    TMP DP  RH WIND       PRES   REMARKS
CHANUTE          N/A    N/A N/A N/A MISG      29.91F
COFFEYVILLE    CLOUDY    75  67  76 S14G21    29.94R
HUTCHINSON     CLOUDY    75  69  81 S18       29.83F
MEDICINE LODGE   N/A     73  68  84 SE12      29.84S
NEWTON         CLOUDY    72  68  87 S24       29.85S
PARSONS        CLOUDY    74  65  73 S8G17     29.94S
WICHITA INTL   LGT RAIN  74  69  85 S10G23    29.86F
WICHITA JABRA  CLOUDY    73  69  87 S13       29.88S
WICHITA MCCONL CLOUDY    74  68  80 S17       29.88F
WINFIELD       MOSUNNY   77  69  76 S17       29.91S
$$

KSZ007>012-019>026-033>040-048>060-102>105-281500-
NORTHEAST KANSAS

CITY           SKY/WX    TMP DP  RH WIND       PRES   REMARKS
CONCORDIA      SUNNY     78  69  73 S21G31    29.74S
EMPORIA        CLOUDY    73  68  84 S15G25    29.87S
LAWRENCE       CLOUDY    75  68  78 S18G26    29.83F
MANHATTAN      CLOUDY    76  68  76 S17G29    29.77R
OLATHE IND     CLOUDY    74  66  76 S18G26    29.89S
OLATHE EXE     CLOUDY    73  66  78 S16G29    29.89S
SALINA         CLOUDY    77  70  79 S17G28    29.77R
TOPEKA BILLARD CLOUDY    75  69  81 S22G33    29.79F
TOPEKA FORBES  CLOUDY    75  68  78 S21G32    29.81F
$$



USA.gov is the U.S. government's official web portal to all federal, state and local government web resources and services.